Regional Weather Roundup
Issued by NWS Lake Charles, LA

Home | Current Version | Previous Version | Text Only | Print | Product List | Glossary On
Versions: 1 2 3 4 5 6 7 8 9 10 11 12 13 14 15 16 17 18 19 20 21 22 23 24 25 26 27 28 29 30 31 32 33 34 35 36 37 38 39 40 41 42 43 44 45 46 47 48 49 50
000
ASUS44 KLCH 241410
RWRLCH
REGIONAL WEATHER ROUNDUP
NATIONAL WEATHER SERVICE LAKE CHARLES LA
900 AM CDT WED AUG 24 2016

Note: "fair" indicates few or no clouds below 12,000 feet with no
significant weather and/or obstructions to visibility.


ACROSS SOUTHEAST TEXAS

CITY           SKY/WX    TMP DP  RH WIND       PRES   REMARKS
BEAUMONT       SUNNY     85  79  82 SE3       30.13R
BEAUMONT CITY  FAIR      85  79  81 S5        30.13S
ORANGE         SUNNY     82  80  92 CALM      30.15R
JASPER         SUNNY     79  78  96 CALM      30.16S
$$

ACROSS CENTRAL LOUISIANA

CITY           SKY/WX    TMP DP  RH WIND       PRES   REMARKS
LEESVILLE      MOSUNNY   82  78  90 SW5       30.16R
FULLERTON      FAIR      82  78  88 CALM      30.14R
ALEXANDRIA INT SUNNY     82  77  84 CALM      30.15R
ESLER FIELD    SUNNY     82  78  88 CALM      30.16S
DERIDDER       FAIR      80  79  95 CALM      30.17R
OAKDALE        SUNNY     82  79  89 CALM      30.16R
OPELOUSAS      FAIR      82  77  87 N3        30.16R
$$

ACROSS SOUTHWEST AND SOUTH CENTRAL LOUISIANA

CITY           SKY/WX    TMP DP  RH WIND       PRES   REMARKS
SULPHUR        SUNNY     85  80  86 CALM      30.15R
LAKE CHARLES   SUNNY     85  79  82 CALM      30.14R
CHENNAULT INT  SUNNY     86  81  84 CALM      30.15R HX 102
CAMERON PHI    SUNNY     86  77  74 CALM      30.13R
DEQUINCY       FAIR      81  78  92 CALM      30.15R
JENNINGS       FAIR      82  79  89 CALM      30.15R
LAFAYETTE      SUNNY     86  79  79 N5        30.16R
NEW IBERIA     MOSUNNY   84  79  85 N6        30.16R
ABBEVILLE      FAIR      82  81  97 NE3       30.16R
PATTERSON      PTSUNNY   85  79  82 NE6       30.17R
SALT POINT       N/A     84  78  82 CALM      30.14R
$$

SELECTED SITES ACROSS THE REGION

CITY           SKY/WX    TMP DP  RH WIND       PRES   REMARKS
HOUSTON BUSH   MOSUNNY   83  78  85 S5        30.12R
HOUSTON HOBBY  MOSUNNY   84  78  82 VRB3      30.11R
GALVESTON      MOSUNNY   86  78  77 S9        30.12R
COLLEGE STAT   CLOUDY    78  77  96 S6        30.12S
CONROE         SUNNY     80  77  90 SE3       30.13R
HUNTSVILLE     MOSUNNY   82  76  81 SW8       30.13R
LUFKIN         CLOUDY    77  77 100 S3        30.13S FOG
SHREVEPORT     PTSUNNY   80  78  94 VRB5      30.13R
MONROE         SUNNY     84  78  82 W5        30.16R
NATCHEZ MS     SUNNY     82  75  78 CALM      30.17S
BATON ROUGE    MOSUNNY   83  78  85 N6        30.17R
N.O. INTL ARPT MOSUNNY   89  78  70 N8        30.16R HX 103
SLIDELL        SUNNY     85  76  74 N5        30.16R
$$

MARINE REPORTS

STATION/POSITION TIME  SKY/WX   TEMP    WIND        PRES    VSBY
                                AIR SEA DIR/SP/G
                 (UTC)          (F)     (DEG/KT/KT) (MB)    (MI)
BUOY 30 S HIGH I 1350            85 85  170/  8/ 10 1019.5R
WVE H/P(F/S)=  2/ 5

SEA RIM ST PARK  1400            85     170/  3/  5 1020.8R
PORT ARTHUR      1300               86  180/  3/  3 1020.1R
SABINE PASS N    1300            83 87  190/  2/  3 1021.4R
TEXAS POINT      NOT AVBL
CALCASIEU PASS   1300            85 86  170/  2/  3 1019.6R
LK CHARLES BEACH 1300            81 82              1020.7R
MARSH ISLAND     1300            86                   N/A
FRESH WATER LOCK 1306            83 91   CALM  /  3 1021.2R
AMERADA PASS     1300            81 86   40/  1/  4 1020.7R
$$



USA.gov is the U.S. government's official web portal to all federal, state and local government web resources and services.